User: anonymous   Login
Location: Boston
(42.3580°N, 71.0600°W)
Time: 15:23:39
(UTC-04:00)
Language:

Envisat - Orbit

View from above orbital plane
View from above orbital plane
View from above satellite
View from above satellite

Ground track
Ground track

The orbit data is extracted from the following two-line orbital elements,

1 27386U 02009A   18176.53640635 -.00000013  00000-0  93216-5 0  9993
2 27386  98.1834 210.2039 0001262  95.5255  65.8335 14.37924485854723
Epoch (UTC): 25 June 2018 12:52:25
Eccentricity: 0.0001262
inclination: 98.1834°
perigee height: 764 km
apogee height: 766 km
right ascension of ascending node: 210.2039°
argument of perigee: 95.5255°
revolutions per day: 14.37924485
mean anomaly at epoch: 65.8335°
orbit number at epoch: 85472

The dashed part of the orbit path shows where the satellite is in the earth's shadow,  

DLR